Showing default

SHERPA-AC1, 52763

Orbit data source: Space-Track

SHERPA-AC1, 52763 is a payload satellite owned by Spaceflight Ind (US) in SSO that was launched on Wed, 25 May 2022 UTC via an FALCON 9 launch vehicle from the Air Force Eastern Test Range (AFETR). Payload-class satellites include a variety of spacecraft equipped with specific instruments for various scientific and technological missions. These include communications satellites like Starlink; space stations such as the ISS; scientific satellites like the Hubble; Earth observation satellites from companies like Planet Labs, Umbra, and HawkEye 360; GPS; miniature CubeSats for education and research; and military/defense satellites.

Loading next visibility...
Identifier
52763, 2022-057AH
Orbit
SSO
Country
Flag of USUS
Related business
Manufacturer
Spaceflight Ind
Mission
Operational Commercial Technology
Bus & Motor
ESPA/SHERPA-FX, Unknown motor
Mass
176 kg wet, 176 kg dry
Launch date (UTC)
2022-05-25 (4 years ago)
Launch vehicle
FALCON 9
Launch site
Air Force Eastern Test Range (AFETR)
Object type
Payload
Rocket body
Debris
Shape & HBR
Cyl, 0.5 m
Radar Cross Section
0.565 m², Large (>1 m²)

Expand to show TLE details & history
Last TLE update: 2 days ago

TLE from 2 days ago
0 SHERPA-AC1
1 52763U 22057AH  26171.38875638  .00006339  00000-0  18138-3 0  9999
2 52763  97.6695 320.7483 0008892  83.9614 276.2642 15.36302137226192
Epoch: 2026-06-20T09:19Z
TLE epoch observation values (Epoch: 2026-06-20T09:19:48.551Z)
Latitude
-0.00003°
Longitude
-87.80808°
Altitude
459.502 km
Speed
7.637 km/s
True Right ascension
21h 22m 59s
True Declination
0° 00' 00"
Sunlit
Object was in full shadow at epoch
Visualization orbit readout
Latitude
Unknown
Longitude
Unknown
Altitude
Unknown
Speed
Unknown
Apparent Right ascension
Unknown
Apparent Declination
Unknown
Sunlit
N/A
Visualization observer readout
Local Sidereal Time
21:51:56
Azimuth
Unknown
Elevation
Unknown
Doppler factor
Unknown
Orbital elements
Apogee altitude
460.086 km
Perigee altitude
447.936 km
Semi-major axis
6,832.148 km
Eccentricity
0.00089
Inclination
97.6695°
RAAN
320.7483°
Arg. of periapsis
83.9614°
True anomaly
276.1629°
Mean anomaly
276.2642°
Eccentric anomaly
276.21355°
Mean motion
3.84333 °/min
Orbital period
93.67 mins
BSTAR
0.00018138
Loading maneuver chart data...
Computing Atmospheric mass density...

Documentation

Showing up to 5 results
|